Regional Weather Roundup
Issued by NWS

Home | Current Version | Previous Version | Graphics & Text | Print | Product List | Glossary On
Versions: 1 2 3 4 5 6 7 8 9 10 11 12 13 14 15 16 17 18 19 20 21 22 23 24 25 26 27 28 29 30 31 32 33 34 35 36 37 38 39 40 41 42 43 44 45 46 47 48 49 50
000
ASUS44 KMEG 051900
RWRTN
TENNESSEE HOURLY STATE WEATHER ROUNDUP
NATIONAL WEATHER SERVICE MEMPHIS TN
200 PM CDT SUN JUL 05 2015

TNZ002-004-019-021-049-052-054-088>092-052000-
WEST TENNESSEE

CITY           SKY/WX    TMP DP  RH WIND       PRES   REMARKS
MEMPHIS INTL   CLOUDY    80  70  71 S12       30.09F
NWS MEMPHIS      N/A     82 N/A N/A MISG        N/A
JACKSON        CLOUDY    84  70  62 S12       30.09S
DYERSBURG        N/A    N/A N/A N/A MISG        N/A
PARIS          MOSUNNY   82  68  61 CALM      30.09S
LEXINGTON      MOSUNNY   82  70  65 SW8       30.08F
$$

TNZ008-025-027-028-033-062-065-066-052000-
NORTH MIDDLE TENNESSEE

CITY           SKY/WX    TMP DP  RH WIND       PRES   REMARKS
NASHVILLE      PTSUNNY   83  69  62 NE3       30.08F
CLARKSVILLE    MOSUNNY   83  68  60 W9        30.07F
COOKEVILLE     MOSUNNY   81  70  69 W8        30.09F
CROSSVILLE     LGT RAIN  71  66  84 W3        30.12S
$$

TNZ061-075-076-078-094-096-097-052000-
SOUTH MIDDLE TENNESSEE

CITY           SKY/WX    TMP DP  RH WIND       PRES   REMARKS
FAYETTEVILLE   CLOUDY    75  68  78 W12       30.12F
TULLAHOMA      MOSUNNY   81  66  61 W6        30.12F
WINCHESTER     PTSUNNY   81  70  69 W8        30.12F
COLUMBIA       MOSUNNY   84  72  65 SW5       30.08F
SHELBYVILLE    PTSUNNY   82  72  69 SW10        N/A
$$

TNZ017-018-042-046-047-052000-
NORTHEAST TENNESSEE

CITY           SKY/WX    TMP DP  RH WIND       PRES   REMARKS
TRI CITIES     CLOUDY    77  70  79 W9        30.06R
ELIZABETHTON   CLEAR     84  63  48 S8        30.04F
$$

TNZ012-013-036-069-073-074-052000-
CENTRAL EAST TENNESSEE

CITY           SKY/WX    TMP DP  RH WIND       PRES   REMARKS
KNOXVILLE      NOT AVBL
OAK RIDGE      LGT RAIN  75  67  76 VRB3      30.08S
GATLINBURG     MOCLDY    79  66  65 W14       30.05R
$$

TNZ083-085-099-052000-
SOUTHEAST TENNESSEE

CITY           SKY/WX    TMP DP  RH WIND       PRES   REMARKS
CHATTANOOGA    PTSUNNY   81  67  62 SW14G23   30.10S
$$

SKY/WX REPORTED AS FAIR MEANS FEW OR NO CLOUDS BELOW
12 THOUSAND FEET.




USA.gov is the U.S. government's official web portal to all federal, state and local government web resources and services.